Time,TemperatureF,DewpointF,PressureIn,WindDirection,WindDirectionDegrees,WindSpeedMPH,WindSpeedGustMPH,Humidity,HourlyPrecipIn,Conditions,Clouds,dailyrainin,SoftwareType,DateUTC
2013-02-06 00:01:00,71.4,61.5,30.00,ENE,76,1.0,15.0,71,0.00,,---,0.00,VWS V14.01,2013-02-06 10:01:00,
2013-02-06 00:06:00,71.5,61.6,30.00,East,94,3.0,6.0,71,0.00,,---,0.00,VWS V14.01,2013-02-06 10:06:00,
2013-02-06 00:11:00,71.3,61.4,30.00,ENE,71,3.0,11.0,71,0.00,,---,0.00,VWS V14.01,2013-02-06 10:11:00,
2013-02-06 00:16:00,71.3,61.4,30.00,ENE,78,3.0,15.0,71,0.00,,---,0.00,VWS V14.01,2013-02-06 10:16:00,
2013-02-06 00:21:00,71.2,60.9,30.00,East,80,7.0,15.0,70,0.00,,---,0.00,VWS V14.01,2013-02-06 10:21:00,
2013-02-06 00:26:00,71.0,60.3,30.00,East,80,2.0,15.0,69,0.00,,---,0.00,VWS V14.01,2013-02-06 10:26:00,
2013-02-06 00:31:00,70.5,59.0,30.00,ENE,64,9.0,15.0,67,0.00,,---,0.00,VWS V14.01,2013-02-06 10:31:00,
2013-02-06 00:36:00,70.2,59.2,30.00,ENE,69,5.0,9.0,68,0.00,,---,0.00,VWS V14.01,2013-02-06 10:36:00,
2013-02-06 00:41:00,70.5,59.8,30.00,ENE,71,0.0,16.0,69,0.00,,---,0.00,VWS V14.01,2013-02-06 10:41:00,
2013-02-06 00:46:00,70.8,60.5,30.00,East,83,6.0,16.0,70,0.00,,---,0.00,VWS V14.01,2013-02-06 10:46:00,
2013-02-06 00:51:00,71.0,60.3,29.99,ENE,70,10.0,16.0,69,0.00,,---,0.00,VWS V14.01,2013-02-06 10:51:00,
2013-02-06 00:56:00,71.1,60.8,29.99,ENE,65,9.0,16.0,70,0.00,,---,0.00,VWS V14.01,2013-02-06 10:56:00,
2013-02-06 01:02:00,71.2,60.5,29.99,ENE,76,2.0,16.0,69,0.00,,---,0.00,VWS V14.01,2013-02-06 11:02:00,
2013-02-06 01:07:00,71.2,60.5,29.99,East,101,9.0,13.0,69,0.00,,---,0.00,VWS V14.01,2013-02-06 11:07:00,
2013-02-06 01:12:00,71.3,60.6,29.99,SE,133,6.0,13.0,69,0.00,,---,0.00,VWS V14.01,2013-02-06 11:12:00,
2013-02-06 01:17:00,71.5,60.8,29.99,ESE,104,3.0,14.0,69,0.00,,---,0.00,VWS V14.01,2013-02-06 11:17:00,
2013-02-06 01:22:00,71.6,60.9,29.99,ENE,78,11.0,14.0,69,0.00,,---,0.00,VWS V14.01,2013-02-06 11:22:00,
2013-02-06 01:27:00,71.9,61.2,29.99,East,90,9.0,19.0,69,0.00,,---,0.00,VWS V14.01,2013-02-06 11:27:00,
2013-02-06 01:32:00,72.0,61.3,29.99,ENE,78,10.0,19.0,69,0.00,,---,0.00,VWS V14.01,2013-02-06 11:32:00,
2013-02-06 01:37:00,72.0,60.9,29.99,ESE,107,7.0,13.0,68,0.00,,---,0.00,VWS V14.01,2013-02-06 11:37:00,
2013-02-06 01:42:00,72.1,61.0,29.99,ENE,74,2.0,13.0,68,0.00,,---,0.00,VWS V14.01,2013-02-06 11:42:00,
2013-02-06 01:47:00,72.1,61.0,29.99,ENE,72,8.0,13.0,68,0.00,,---,0.00,VWS V14.01,2013-02-06 11:47:00,
2013-02-06 01:52:00,71.9,60.8,29.98,NE,39,3.0,13.0,68,0.00,,---,0.00,VWS V14.01,2013-02-06 11:52:00,
2013-02-06 01:57:00,71.9,61.2,29.98,ENE,67,8.0,13.0,69,0.00,,---,0.00,VWS V14.01,2013-02-06 11:57:00,
2013-02-06 02:02:00,71.7,61.0,29.98,SE,129,6.0,13.0,69,0.00,,---,0.00,VWS V14.01,2013-02-06 12:02:00,
2013-02-06 02:07:00,71.5,60.4,29.98,ESE,119,5.0,5.0,68,0.00,,---,0.00,VWS V14.01,2013-02-06 12:07:00,
2013-02-06 02:12:00,70.6,57.8,29.98,SE,130,3.0,5.0,64,0.00,,---,0.00,VWS V14.01,2013-02-06 12:12:00,
2013-02-06 02:17:00,69.9,55.4,29.97,ESE,109,3.0,6.0,60,0.00,,---,0.00,VWS V14.01,2013-02-06 12:17:00,
2013-02-06 02:22:00,69.5,55.0,29.96,East,84,7.0,11.0,60,0.00,,---,0.00,VWS V14.01,2013-02-06 12:22:00,
2013-02-06 02:27:00,69.3,54.8,29.96,ENE,70,8.0,11.0,60,0.00,,---,0.00,VWS V14.01,2013-02-06 12:27:00,
2013-02-06 02:32:00,69.0,54.5,29.96,East,92,7.0,11.0,60,0.00,,---,0.00,VWS V14.01,2013-02-06 12:32:00,
2013-02-06 02:37:00,68.6,54.6,29.97,East,96,5.0,7.0,61,0.00,,---,0.00,VWS V14.01,2013-02-06 12:37:00,
2013-02-06 02:43:00,68.3,54.3,29.97,ESE,120,4.0,7.0,61,0.00,,---,0.00,VWS V14.01,2013-02-06 12:43:00,
2013-02-06 02:48:00,68.1,54.6,29.97,ESE,104,2.0,7.0,62,0.00,,---,0.00,VWS V14.01,2013-02-06 12:48:00,
2013-02-06 02:53:00,68.3,54.8,29.97,ESE,123,3.0,7.0,62,0.00,,---,0.00,VWS V14.01,2013-02-06 12:53:00,
2013-02-06 02:58:00,68.5,55.0,29.97,ESE,107,3.0,7.0,62,0.00,,---,0.00,VWS V14.01,2013-02-06 12:58:00,
2013-02-06 03:03:00,69.2,55.2,29.97,ESE,123,2.0,7.0,61,0.00,,---,0.00,VWS V14.01,2013-02-06 13:03:00,
2013-02-06 03:08:00,69.9,55.4,29.97,SE,136,2.0,4.0,60,0.00,,---,0.00,VWS V14.01,2013-02-06 13:08:00,
2013-02-06 03:13:00,70.0,55.5,29.97,SE,143,2.0,4.0,60,0.00,,---,0.00,VWS V14.01,2013-02-06 13:13:00,
2013-02-06 03:18:00,69.9,55.4,29.96,SSE,153,2.0,4.0,60,0.00,,---,0.00,VWS V14.01,2013-02-06 13:18:00,
2013-02-06 03:23:00,69.5,55.0,29.97,SSE,156,3.0,5.0,60,0.00,,---,0.00,VWS V14.01,2013-02-06 13:23:00,
2013-02-06 03:28:00,69.4,55.4,29.96,SSE,159,4.0,5.0,61,0.00,,---,0.00,VWS V14.01,2013-02-06 13:28:00,
2013-02-06 03:33:00,69.6,55.1,29.96,SSE,160,4.0,5.0,60,0.00,,---,0.00,VWS V14.01,2013-02-06 13:33:00,
2013-02-06 03:38:00,69.5,55.0,29.96,SSE,163,2.0,3.0,60,0.00,,---,0.00,VWS V14.01,2013-02-06 13:38:00,
2013-02-06 03:43:00,69.5,55.0,29.96,SSE,163,1.0,3.0,60,0.00,,---,0.00,VWS V14.01,2013-02-06 13:43:00,
2013-02-06 03:48:00,69.4,54.9,29.96,South,169,2.0,5.0,60,0.00,,---,0.00,VWS V14.01,2013-02-06 13:48:00,
2013-02-06 03:53:00,69.3,54.4,29.96,SSE,156,3.0,5.0,59,0.00,,---,0.00,VWS V14.01,2013-02-06 13:53:00,
2013-02-06 03:58:00,69.3,54.4,29.96,SSE,153,1.0,6.0,59,0.00,,---,0.00,VWS V14.01,2013-02-06 13:58:00,
2013-02-06 04:03:00,69.3,54.4,29.96,SE,144,3.0,6.0,59,0.00,,---,0.00,VWS V14.01,2013-02-06 14:03:00,
2013-02-06 04:08:00,69.2,54.3,29.96,ESE,103,5.0,6.0,59,0.00,,---,0.00,VWS V14.01,2013-02-06 14:08:00,
2013-02-06 04:14:00,69.0,54.5,29.96,East,98,2.0,7.0,60,0.00,,---,0.00,VWS V14.01,2013-02-06 14:14:00,
2013-02-06 04:19:00,68.6,54.6,29.96,ENE,76,4.0,7.0,61,0.00,,---,0.00,VWS V14.01,2013-02-06 14:19:00,
2013-02-06 04:24:00,68.4,55.3,29.96,East,96,3.0,7.0,63,0.00,,---,0.00,VWS V14.01,2013-02-06 14:24:00,
2013-02-06 04:29:00,68.8,55.7,29.96,ESE,109,2.0,7.0,63,0.00,,---,0.00,VWS V14.01,2013-02-06 14:29:00,
2013-02-06 04:34:00,68.9,55.4,29.96,SE,126,2.0,7.0,62,0.00,,---,0.00,VWS V14.01,2013-02-06 14:34:00,
2013-02-06 04:39:00,68.8,55.3,29.96,SE,136,2.0,5.0,62,0.00,,---,0.00,VWS V14.01,2013-02-06 14:39:00,
2013-02-06 04:44:00,68.8,55.3,29.96,SE,127,2.0,5.0,62,0.00,,---,0.00,VWS V14.01,2013-02-06 14:44:00,
2013-02-06 04:49:00,69.0,55.5,29.97,ESE,115,2.0,5.0,62,0.00,,---,0.00,VWS V14.01,2013-02-06 14:49:00,
2013-02-06 04:54:00,69.3,55.7,29.97,ESE,112,3.0,5.0,62,0.00,,---,0.00,VWS V14.01,2013-02-06 14:54:00,
2013-02-06 04:59:00,69.4,55.4,29.97,ESE,116,3.0,7.0,61,0.00,,---,0.00,VWS V14.01,2013-02-06 14:59:00,
2013-02-06 05:04:00,69.5,55.5,29.97,ESE,117,4.0,5.0,61,0.00,,---,0.00,VWS V14.01,2013-02-06 15:04:00,
2013-02-06 05:09:00,69.6,55.1,29.97,ESE,111,7.0,7.0,60,0.00,,---,0.00,VWS V14.01,2013-02-06 15:09:00,
2013-02-06 05:14:00,69.5,55.5,29.97,East,95,3.0,7.0,61,0.00,,---,0.00,VWS V14.01,2013-02-06 15:14:00,
2013-02-06 05:19:00,69.4,55.4,29.97,ESE,115,2.0,7.0,61,0.00,,---,0.00,VWS V14.01,2013-02-06 15:19:00,
2013-02-06 05:24:00,69.2,55.6,29.97,ESE,115,2.0,7.0,62,0.00,,---,0.00,VWS V14.01,2013-02-06 15:24:00,
2013-02-06 05:29:00,69.2,55.2,29.98,ESE,122,4.0,7.0,61,0.00,,---,0.00,VWS V14.01,2013-02-06 15:29:00,
2013-02-06 05:34:00,69.3,55.3,29.98,ESE,111,0.0,2.0,61,0.00,,---,0.00,VWS V14.01,2013-02-06 15:34:00,
2013-02-06 05:39:00,69.4,55.4,29.98,ESE,113,1.0,3.0,61,0.00,,---,0.00,VWS V14.01,2013-02-06 15:39:00,
2013-02-06 05:44:00,69.4,56.7,29.98,ESE,110,0.0,3.0,64,0.00,,---,0.00,VWS V14.01,2013-02-06 15:44:00,
2013-02-06 05:49:00,69.4,55.8,29.98,ESE,113,3.0,3.0,62,0.00,,---,0.00,VWS V14.01,2013-02-06 15:49:00,
2013-02-06 05:54:00,68.8,55.3,29.98,SE,136,2.0,6.0,62,0.00,,---,0.00,VWS V14.01,2013-02-06 15:54:00,
2013-02-06 05:59:00,68.6,54.6,29.98,SE,136,0.0,6.0,61,0.00,,---,0.00,VWS V14.01,2013-02-06 15:59:00,
2013-02-06 06:04:00,68.3,53.9,29.98,SE,136,0.0,1.0,60,0.00,,---,0.00,VWS V14.01,2013-02-06 16:04:00,
2013-02-06 06:10:00,67.8,53.9,29.98,SE,127,3.0,4.0,61,0.00,,---,0.00,VWS V14.01,2013-02-06 16:10:00,
2013-02-06 06:15:00,67.4,53.9,29.98,SE,126,2.0,4.0,62,0.00,,---,0.00,VWS V14.01,2013-02-06 16:15:00,
2013-02-06 06:20:00,66.7,53.7,29.98,East,88,3.0,6.0,63,0.00,,---,0.00,VWS V14.01,2013-02-06 16:20:00,
2013-02-06 06:25:00,66.4,54.3,29.98,East,80,6.0,7.0,65,0.00,,---,0.00,VWS V14.01,2013-02-06 16:25:00,
2013-02-06 06:30:00,66.4,53.9,29.99,ENE,78,3.0,7.0,64,0.00,,---,0.00,VWS V14.01,2013-02-06 16:30:00,
2013-02-06 06:35:00,66.6,54.1,29.99,East,83,6.0,6.0,64,0.00,,---,0.00,VWS V14.01,2013-02-06 16:35:00,
2013-02-06 06:40:00,67.4,54.8,29.99,East,96,1.0,8.0,64,0.00,,---,0.00,VWS V14.01,2013-02-06 16:40:00,
2013-02-06 06:45:00,67.7,54.7,29.99,ENE,76,5.0,8.0,63,0.00,,---,0.00,VWS V14.01,2013-02-06 16:45:00,
2013-02-06 06:50:00,68.3,55.2,29.99,East,92,2.0,8.0,63,0.00,,---,0.00,VWS V14.01,2013-02-06 16:50:00,
2013-02-06 06:55:00,68.4,55.3,29.99,East,101,5.0,8.0,63,0.00,,---,0.00,VWS V14.01,2013-02-06 16:55:00,
2013-02-06 07:00:00,68.5,55.0,29.99,ESE,107,3.0,8.0,62,0.00,,---,0.00,VWS V14.01,2013-02-06 17:00:00,
2013-02-06 07:05:00,68.4,54.9,30.00,ESE,113,0.0,2.0,62,0.00,,---,0.00,VWS V14.01,2013-02-06 17:05:00,
2013-02-06 07:10:00,68.1,54.6,30.00,ESE,115,2.0,4.0,62,0.00,,---,0.00,VWS V14.01,2013-02-06 17:10:00,
2013-02-06 07:15:00,68.1,55.0,30.00,ESE,107,2.0,6.0,63,0.00,,---,0.00,VWS V14.01,2013-02-06 17:15:00,
2013-02-06 07:20:00,68.2,55.1,30.00,ESE,115,4.0,7.0,63,0.00,,---,0.00,VWS V14.01,2013-02-06 17:20:00,
2013-02-06 07:26:00,68.5,55.0,30.00,East,89,5.0,7.0,62,0.00,,---,0.00,VWS V14.01,2013-02-06 17:26:00,
2013-02-06 07:31:00,68.8,55.3,30.00,East,94,1.0,8.0,62,0.00,,---,0.00,VWS V14.01,2013-02-06 17:31:00,
2013-02-06 07:36:00,69.2,56.1,30.01,ESE,120,5.0,9.0,63,0.00,,---,0.00,VWS V14.01,2013-02-06 17:36:00,
2013-02-06 07:41:00,69.6,55.6,30.01,SE,136,4.0,9.0,61,0.00,,---,0.00,VWS V14.01,2013-02-06 17:41:00,
2013-02-06 07:46:00,69.7,55.7,30.01,ESE,107,5.0,9.0,61,0.00,,---,0.00,VWS V14.01,2013-02-06 17:46:00,
2013-02-06 07:51:00,70.1,55.6,30.01,ESE,119,4.0,9.0,60,0.00,,---,0.00,VWS V14.01,2013-02-06 17:51:00,
2013-02-06 07:56:00,70.5,56.0,30.01,ESE,113,8.0,9.0,60,0.00,,---,0.00,VWS V14.01,2013-02-06 17:56:00,
2013-02-06 08:01:00,71.0,56.4,30.01,ESE,120,7.0,9.0,60,0.00,,---,0.00,VWS V14.01,2013-02-06 18:01:00,
2013-02-06 08:06:00,71.5,56.4,30.01,ESE,118,4.0,4.0,59,0.00,,---,0.00,VWS V14.01,2013-02-06 18:06:00,
2013-02-06 08:11:00,72.0,56.4,30.01,SE,141,5.0,6.0,58,0.00,,---,0.00,VWS V14.01,2013-02-06 18:11:00,
2013-02-06 08:16:00,72.7,57.1,30.01,SSE,155,3.0,7.0,58,0.00,,---,0.00,VWS V14.01,2013-02-06 18:16:00,
2013-02-06 08:21:00,73.5,58.3,30.01,SSE,156,1.0,7.0,59,0.00,,---,0.00,VWS V14.01,2013-02-06 18:21:00,
2013-02-06 08:27:00,74.2,57.5,30.01,SSE,156,1.0,7.0,56,0.00,,---,0.00,VWS V14.01,2013-02-06 18:27:00,
2013-02-06 08:32:00,74.9,59.1,30.02,East,101,3.0,7.0,58,0.00,,---,0.00,VWS V14.01,2013-02-06 18:32:00,
2013-02-06 08:37:00,76.4,62.0,30.01,East,79,5.0,5.0,61,0.00,,---,0.00,VWS V14.01,2013-02-06 18:37:00,
2013-02-06 08:42:00,77.6,62.2,30.01,ENE,69,1.0,6.0,59,0.00,,---,0.00,VWS V14.01,2013-02-06 18:42:00,
2013-02-06 08:47:00,77.8,61.9,30.01,NNE,32,2.0,6.0,58,0.00,,---,0.00,VWS V14.01,2013-02-06 18:47:00,
2013-02-06 08:52:00,78.0,62.5,30.01,NNW,344,2.0,6.0,59,0.00,,---,0.00,VWS V14.01,2013-02-06 18:52:00,
2013-02-06 08:57:00,79.0,62.0,30.01,ENE,64,3.0,8.0,56,0.00,,---,0.00,VWS V14.01,2013-02-06 18:57:00,
2013-02-06 09:02:00,78.7,58.5,30.01,ESE,104,3.0,8.0,50,0.00,,---,0.00,VWS V14.01,2013-02-06 19:02:00,
2013-02-06 09:07:00,77.6,58.6,30.02,SSE,156,5.0,5.0,52,0.00,,---,0.00,VWS V14.01,2013-02-06 19:07:00,
2013-02-06 09:12:00,77.3,58.8,30.02,SSE,154,1.0,6.0,53,0.00,,---,0.00,VWS V14.01,2013-02-06 19:12:00,
2013-02-06 09:17:00,78.1,59.1,30.02,East,99,2.0,6.0,52,0.00,,---,0.00,VWS V14.01,2013-02-06 19:17:00,
2013-02-06 09:22:00,77.8,58.8,30.02,SE,133,1.0,6.0,52,0.00,,---,0.00,VWS V14.01,2013-02-06 19:22:00,
2013-02-06 09:27:00,78.4,59.3,30.02,ESE,120,0.0,6.0,52,0.00,,---,0.00,VWS V14.01,2013-02-06 19:27:00,
2013-02-06 09:32:00,78.2,58.1,30.02,ESE,120,0.0,6.0,50,0.00,,---,0.00,VWS V14.01,2013-02-06 19:32:00,
2013-02-06 09:37:00,78.0,59.5,30.02,ESE,120,0.0,1.0,53,0.00,,---,0.00,VWS V14.01,2013-02-06 19:37:00,
2013-02-06 09:43:00,77.8,60.9,30.02,SE,133,1.0,3.0,56,0.00,,---,0.00,VWS V14.01,2013-02-06 19:43:00,
2013-02-06 09:48:00,77.3,61.4,30.02,SW,224,3.0,4.0,58,0.00,,---,0.00,VWS V14.01,2013-02-06 19:48:00,
2013-02-06 09:53:00,77.0,62.1,30.02,West,261,3.0,4.0,60,0.00,,---,0.00,VWS V14.01,2013-02-06 19:53:00,
2013-02-06 09:58:00,77.5,61.1,30.02,WSW,246,2.0,4.0,57,0.00,,---,0.00,VWS V14.01,2013-02-06 19:58:00,
2013-02-06 10:03:00,78.1,60.6,30.02,West,263,2.0,4.0,55,0.00,,---,0.00,VWS V14.01,2013-02-06 20:03:00,
2013-02-06 10:08:00,78.5,61.5,30.02,SW,219,2.0,4.0,56,0.00,,---,0.00,VWS V14.01,2013-02-06 20:08:00,
2013-02-06 10:13:00,78.0,62.5,30.02,WSW,243,3.0,4.0,59,0.00,,---,0.00,VWS V14.01,2013-02-06 20:13:00,
2013-02-06 10:18:00,77.7,63.7,30.02,WSW,241,3.0,5.0,62,0.00,,---,0.00,VWS V14.01,2013-02-06 20:18:00,
2013-02-06 10:23:00,77.5,62.5,30.02,SSW,209,2.0,5.0,60,0.00,,---,0.00,VWS V14.01,2013-02-06 20:23:00,
2013-02-06 10:28:00,77.8,63.3,30.02,WSW,240,3.0,5.0,61,0.00,,---,0.00,VWS V14.01,2013-02-06 20:28:00,
2013-02-06 10:33:00,78.5,63.5,30.02,SW,232,2.0,5.0,60,0.00,,---,0.00,VWS V14.01,2013-02-06 20:33:00,
2013-02-06 10:38:00,78.8,64.2,30.02,SW,227,3.0,3.0,61,0.00,,---,0.00,VWS V14.01,2013-02-06 20:38:00,
2013-02-06 10:43:00,78.7,63.2,30.02,SSW,198,2.0,4.0,59,0.00,,---,0.00,VWS V14.01,2013-02-06 20:43:00,
2013-02-06 10:48:00,79.3,64.2,30.02,West,265,2.0,5.0,60,0.00,,---,0.00,VWS V14.01,2013-02-06 20:48:00,
2013-02-06 10:53:00,79.1,64.0,30.02,SSW,197,2.0,5.0,60,0.00,,---,0.00,VWS V14.01,2013-02-06 20:53:00,
2013-02-06 10:58:00,79.2,63.7,30.02,WSW,244,3.0,5.0,59,0.00,,---,0.00,VWS V14.01,2013-02-06 20:58:00,
2013-02-06 11:03:00,79.2,64.6,30.01,West,269,2.0,5.0,61,0.00,,---,0.00,VWS V14.01,2013-02-06 21:03:00,
2013-02-06 11:08:00,79.3,65.2,30.02,West,263,3.0,4.0,62,0.00,,---,0.00,VWS V14.01,2013-02-06 21:08:00,
2013-02-06 11:13:00,78.8,63.8,30.02,West,263,3.0,5.0,60,0.00,,---,0.00,VWS V14.01,2013-02-06 21:13:00,
2013-02-06 11:18:00,78.5,65.3,30.01,West,265,5.0,6.0,64,0.00,,---,0.00,VWS V14.01,2013-02-06 21:18:00,
2013-02-06 11:24:00,78.6,65.4,30.02,West,264,4.0,6.0,64,0.00,,---,0.00,VWS V14.01,2013-02-06 21:24:00,
2013-02-06 11:29:00,78.5,64.9,30.01,West,263,2.0,6.0,63,0.00,,---,0.00,VWS V14.01,2013-02-06 21:29:00,
2013-02-06 11:34:00,78.4,64.3,30.01,West,268,4.0,6.0,62,0.00,,---,0.00,VWS V14.01,2013-02-06 21:34:00,
2013-02-06 11:39:00,78.3,65.6,30.00,WSW,254,4.0,5.0,65,0.00,,---,0.00,VWS V14.01,2013-02-06 21:39:00,
2013-02-06 11:44:00,78.4,64.8,30.01,WSW,257,4.0,5.0,63,0.00,,---,0.00,VWS V14.01,2013-02-06 21:44:00,
2013-02-06 11:49:00,78.5,64.0,30.00,WSW,257,4.0,5.0,61,0.00,,---,0.00,VWS V14.01,2013-02-06 21:49:00,
2013-02-06 11:54:00,78.7,65.5,30.00,West,270,3.0,5.0,64,0.00,,---,0.00,VWS V14.01,2013-02-06 21:54:00,
2013-02-06 11:59:00,78.9,64.3,30.00,West,262,3.0,5.0,61,0.00,,---,0.00,VWS V14.01,2013-02-06 21:59:00,
2013-02-06 12:04:00,78.9,64.3,29.99,West,272,3.0,5.0,61,0.00,,---,0.00,VWS V14.01,2013-02-06 22:04:00,
2013-02-06 12:09:00,78.9,65.2,29.99,West,269,2.0,6.0,63,0.00,,---,0.00,VWS V14.01,2013-02-06 22:09:00,
2013-02-06 12:14:00,78.9,63.8,29.99,West,261,4.0,6.0,60,0.00,,---,0.00,VWS V14.01,2013-02-06 22:14:00,
2013-02-06 12:19:00,78.7,64.1,29.99,West,268,4.0,6.0,61,0.00,,---,0.00,VWS V14.01,2013-02-06 22:19:00,
2013-02-06 12:24:00,79.0,63.0,29.98,West,262,3.0,6.0,58,0.00,,---,0.00,VWS V14.01,2013-02-06 22:24:00,
2013-02-06 12:29:00,79.2,63.2,29.98,West,266,4.0,6.0,58,0.00,,---,0.00,VWS V14.01,2013-02-06 22:29:00,
2013-02-06 12:34:00,79.1,64.0,29.98,West,267,3.0,4.0,60,0.00,,---,0.00,VWS V14.01,2013-02-06 22:34:00,
2013-02-06 12:39:00,79.3,63.7,29.98,WSW,257,2.0,5.0,59,0.00,,---,0.00,VWS V14.01,2013-02-06 22:39:00,
2013-02-06 12:44:00,79.0,65.3,29.98,West,267,4.0,7.0,63,0.00,,---,0.00,VWS V14.01,2013-02-06 22:44:00,
2013-02-06 12:49:00,78.7,65.1,29.98,West,264,3.0,7.0,63,0.00,,---,0.00,VWS V14.01,2013-02-06 22:49:00,
2013-02-06 12:54:00,78.7,65.1,29.98,WSW,252,3.0,7.0,63,0.00,,---,0.00,VWS V14.01,2013-02-06 22:54:00,
2013-02-06 12:59:00,78.4,65.2,29.97,West,265,3.0,7.0,64,0.00,,---,0.00,VWS V14.01,2013-02-06 22:59:00,
2013-02-06 13:04:00,77.5,64.8,29.97,West,266,4.0,5.0,65,0.00,,---,0.00,VWS V14.01,2013-02-06 23:04:00,
2013-02-06 13:09:00,77.1,64.4,29.97,West,261,4.0,5.0,65,0.00,,---,0.00,VWS V14.01,2013-02-06 23:09:00,
2013-02-06 13:14:00,77.0,65.2,29.96,West,272,5.0,6.0,67,0.00,,---,0.00,VWS V14.01,2013-02-06 23:14:00,
2013-02-06 13:20:00,77.7,65.0,29.96,West,272,2.0,7.0,65,0.00,,---,0.00,VWS V14.01,2013-02-06 23:20:00,
2013-02-06 13:25:00,77.7,65.4,29.96,West,272,2.0,7.0,66,0.00,,---,0.00,VWS V14.01,2013-02-06 23:25:00,
2013-02-06 13:30:00,77.6,65.3,29.96,West,269,2.0,7.0,66,0.00,,---,0.00,VWS V14.01,2013-02-06 23:30:00,
2013-02-06 13:35:00,78.0,64.4,29.96,West,269,3.0,5.0,63,0.00,,---,0.00,VWS V14.01,2013-02-06 23:35:00,
2013-02-06 13:40:00,78.4,65.2,29.96,West,269,4.0,6.0,64,0.00,,---,0.00,VWS V14.01,2013-02-06 23:40:00,
2013-02-06 13:45:00,78.0,65.7,29.96,West,267,2.0,6.0,66,0.00,,---,0.00,VWS V14.01,2013-02-06 23:45:00,
2013-02-06 13:50:00,78.1,65.8,29.96,West,267,2.0,6.0,66,0.00,,---,0.00,VWS V14.01,2013-02-06 23:50:00,
2013-02-06 13:55:00,78.4,66.6,29.95,West,268,4.0,6.0,67,0.00,,---,0.00,VWS V14.01,2013-02-06 23:55:00,
2013-02-06 14:00:00,78.5,66.2,29.95,West,259,2.0,6.0,66,0.00,,---,0.00,VWS V14.01,2013-02-07 00:00:00,
2013-02-06 14:05:00,78.6,65.9,29.95,West,261,4.0,4.0,65,0.00,,---,0.00,VWS V14.01,2013-02-07 00:05:00,
2013-02-06 14:10:00,78.6,65.4,29.95,West,261,3.0,4.0,64,0.00,,---,0.00,VWS V14.01,2013-02-07 00:10:00,
2013-02-06 14:15:00,78.6,65.9,29.95,West,277,3.0,5.0,65,0.00,,---,0.00,VWS V14.01,2013-02-07 00:15:00,
2013-02-06 14:20:00,78.6,65.9,29.95,West,277,3.0,5.0,65,0.00,,---,0.00,VWS V14.01,2013-02-07 00:20:00,
2013-02-06 14:25:00,78.6,65.4,29.95,West,277,3.0,5.0,64,0.00,,---,0.00,VWS V14.01,2013-02-07 00:25:00,
2013-02-06 14:30:00,78.6,65.9,29.94,West,277,3.0,5.0,65,0.00,,---,0.00,VWS V14.01,2013-02-07 00:30:00,
2013-02-06 14:35:00,78.9,66.2,29.94,West,276,5.0,5.0,65,0.00,,---,0.00,VWS V14.01,2013-02-07 00:35:00,
2013-02-06 14:40:00,78.7,66.4,29.94,West,280,3.0,5.0,66,0.00,,---,0.00,VWS V14.01,2013-02-07 00:40:00,
2013-02-06 14:45:00,79.0,65.8,29.94,West,280,3.0,5.0,64,0.00,,---,0.00,VWS V14.01,2013-02-07 00:45:00,
2013-02-06 14:50:00,79.0,64.9,29.94,West,267,5.0,5.0,62,0.00,,---,0.00,VWS V14.01,2013-02-07 00:50:00,
2013-02-06 14:55:00,78.9,66.2,29.93,West,272,5.0,6.0,65,0.00,,---,0.00,VWS V14.01,2013-02-07 00:55:00,
2013-02-06 15:00:00,78.6,65.9,29.93,West,265,3.0,6.0,65,0.00,,---,0.00,VWS V14.01,2013-02-07 01:00:00,
2013-02-06 15:05:00,78.8,65.6,29.93,WSW,247,3.0,4.0,64,0.00,,---,0.00,VWS V14.01,2013-02-07 01:05:00,
2013-02-06 15:10:00,78.8,64.7,29.93,West,269,3.0,5.0,62,0.00,,---,0.00,VWS V14.01,2013-02-07 01:10:00,
2013-02-06 15:16:00,79.2,64.6,29.93,West,259,2.0,5.0,61,0.00,,---,0.00,VWS V14.01,2013-02-07 01:16:00,
2013-02-06 15:21:00,78.7,66.0,29.93,West,270,6.0,6.0,65,0.00,,---,0.00,VWS V14.01,2013-02-07 01:21:00,
2013-02-06 15:26:00,78.5,64.9,29.93,WSW,254,4.0,6.0,63,0.00,,---,0.00,VWS V14.01,2013-02-07 01:26:00,
2013-02-06 15:31:00,78.4,65.7,29.93,West,262,3.0,6.0,65,0.00,,---,0.00,VWS V14.01,2013-02-07 01:31:00,
2013-02-06 15:36:00,78.2,65.9,29.93,West,263,5.0,5.0,66,0.00,,---,0.00,VWS V14.01,2013-02-07 01:36:00,
2013-02-06 15:41:00,78.3,65.6,29.93,West,261,3.0,5.0,65,0.00,,---,0.00,VWS V14.01,2013-02-07 01:41:00,
2013-02-06 15:46:00,78.2,65.9,29.93,West,263,3.0,5.0,66,0.00,,---,0.00,VWS V14.01,2013-02-07 01:46:00,
2013-02-06 15:51:00,78.2,66.8,29.94,West,262,3.0,6.0,68,0.00,,---,0.00,VWS V14.01,2013-02-07 01:51:00,
2013-02-06 15:56:00,78.2,65.0,29.94,WSW,250,2.0,6.0,64,0.00,,---,0.00,VWS V14.01,2013-02-07 01:56:00,
2013-02-06 16:01:00,78.2,65.0,29.94,WSW,247,2.0,6.0,64,0.00,,---,0.00,VWS V14.01,2013-02-07 02:01:00,
2013-02-06 16:06:00,78.2,65.0,29.94,WSW,252,3.0,4.0,64,0.00,,---,0.00,VWS V14.01,2013-02-07 02:06:00,
2013-02-06 16:11:00,78.0,65.7,29.94,West,260,4.0,5.0,66,0.00,,---,0.00,VWS V14.01,2013-02-07 02:11:00,
2013-02-06 16:16:00,77.9,65.2,29.94,West,262,3.0,6.0,65,0.00,,---,0.00,VWS V14.01,2013-02-07 02:16:00,
2013-02-06 16:21:00,77.7,65.9,29.95,West,264,3.0,6.0,67,0.00,,---,0.00,VWS V14.01,2013-02-07 02:21:00,
2013-02-06 16:27:00,77.6,65.8,29.95,West,264,3.0,6.0,67,0.00,,---,0.00,VWS V14.01,2013-02-07 02:27:00,
2013-02-06 16:32:00,77.7,66.7,29.95,WSW,250,3.0,6.0,69,0.00,,---,0.00,VWS V14.01,2013-02-07 02:32:00,
2013-02-06 16:37:00,77.6,66.2,29.95,WSW,255,3.0,5.0,68,0.00,,---,0.00,VWS V14.01,2013-02-07 02:37:00,
2013-02-06 16:42:00,77.6,67.1,29.95,West,260,4.0,5.0,70,0.00,,---,0.00,VWS V14.01,2013-02-07 02:42:00,
2013-02-06 16:47:00,77.4,66.4,29.95,WSW,258,2.0,5.0,69,0.00,,---,0.00,VWS V14.01,2013-02-07 02:47:00,
2013-02-06 16:52:00,77.3,65.5,29.95,WSW,245,2.0,5.0,67,0.00,,---,0.00,VWS V14.01,2013-02-07 02:52:00,
2013-02-06 16:57:00,77.3,65.5,29.95,WSW,242,2.0,8.0,67,0.00,,---,0.00,VWS V14.01,2013-02-07 02:57:00,
2013-02-06 17:02:00,77.6,65.8,29.95,WSW,253,0.0,8.0,67,0.00,,---,0.00,VWS V14.01,2013-02-07 03:02:00,
2013-02-06 17:07:00,77.5,66.5,29.95,WSW,254,4.0,5.0,69,0.00,,---,0.00,VWS V14.01,2013-02-07 03:07:00,
2013-02-06 17:12:00,77.3,66.3,29.95,West,263,3.0,5.0,69,0.00,,---,0.00,VWS V14.01,2013-02-07 03:12:00,
2013-02-06 17:17:00,77.1,66.6,29.95,WSW,249,4.0,5.0,70,0.00,,---,0.00,VWS V14.01,2013-02-07 03:17:00,
2013-02-06 17:22:00,77.1,67.0,29.96,WSW,253,3.0,5.0,71,0.00,,---,0.00,VWS V14.01,2013-02-07 03:22:00,
2013-02-06 17:27:00,77.1,67.4,29.96,West,263,4.0,6.0,72,0.00,,---,0.00,VWS V14.01,2013-02-07 03:27:00,
2013-02-06 17:32:00,76.9,67.2,29.96,West,261,2.0,6.0,72,0.00,,---,0.00,VWS V14.01,2013-02-07 03:32:00,
2013-02-06 17:37:00,76.8,67.1,29.97,West,261,4.0,4.0,72,0.00,,---,0.00,VWS V14.01,2013-02-07 03:37:00,
2013-02-06 17:42:00,76.8,67.1,29.97,West,261,3.0,4.0,72,0.00,,---,0.00,VWS V14.01,2013-02-07 03:42:00,
2013-02-06 17:47:00,76.6,67.3,29.98,West,261,1.0,4.0,73,0.00,,---,0.00,VWS V14.01,2013-02-07 03:47:00,
2013-02-06 17:52:00,76.5,67.2,29.98,West,261,2.0,4.0,73,0.00,,---,0.00,VWS V14.01,2013-02-07 03:52:00,
2013-02-06 17:56:00,75.9,68.2,29.98,West,265,5.0,6.0,77,0.00,,---,0.00,VWS V14.01,2013-02-07 03:56:00,
2013-02-06 17:57:00,76.5,67.2,29.98,West,263,0.0,4.0,73,0.00,,---,0.00,VWS V14.01,2013-02-07 03:57:00,
2013-02-06 17:58:00,76.0,68.7,29.99,West,274,4.0,6.0,78,0.00,,---,0.00,VWS V14.01,2013-02-07 03:58:00,
2013-02-06 17:59:00,76.0,68.3,29.99,West,274,5.0,6.0,77,0.00,,---,0.00,VWS V14.01,2013-02-07 03:59:00,
2013-02-06 18:00:00,76.0,68.3,29.99,West,274,6.0,6.0,77,0.00,,---,0.00,VWS V14.01,2013-02-07 04:00:00,
2013-02-06 18:01:00,75.9,68.2,29.99,West,275,5.0,6.0,77,0.00,,---,0.00,VWS V14.01,2013-02-07 04:01:00,
2013-02-06 18:02:00,76.4,67.5,29.97,WSW,256,1.0,4.0,74,0.00,,---,0.00,VWS V14.01,2013-02-07 04:02:00,
2013-02-06 18:03:00,75.9,68.2,29.99,West,275,6.0,6.0,77,0.00,,---,0.00,VWS V14.01,2013-02-07 04:03:00,
2013-02-06 18:04:00,75.9,68.2,29.99,West,274,6.0,7.0,77,0.00,,---,0.00,VWS V14.01,2013-02-07 04:04:00,
2013-02-06 18:05:00,75.9,68.2,30.00,West,278,6.0,7.0,77,0.00,,---,0.00,VWS V14.01,2013-02-07 04:05:00,
2013-02-06 18:06:00,75.9,68.2,30.00,West,280,6.0,7.0,77,0.00,,---,0.00,VWS V14.01,2013-02-07 04:06:00,
2013-02-06 18:07:00,75.9,68.2,30.00,West,277,5.0,7.0,77,0.00,,---,0.00,VWS V14.01,2013-02-07 04:07:00,
2013-02-06 18:08:00,76.3,67.4,29.97,SW,230,1.0,3.0,74,0.00,,---,0.00,VWS V14.01,2013-02-07 04:08:00,
2013-02-06 18:09:00,75.9,68.2,30.00,West,280,6.0,7.0,77,0.00,,---,0.00,VWS V14.01,2013-02-07 04:09:00,
2013-02-06 18:10:00,75.8,68.1,30.00,West,279,5.0,7.0,77,0.00,,---,0.00,VWS V14.01,2013-02-07 04:10:00,
2013-02-06 18:11:00,75.8,68.1,30.00,West,279,6.0,7.0,77,0.00,,---,0.00,VWS V14.01,2013-02-07 04:11:00,
2013-02-06 18:12:00,75.8,68.1,30.00,West,279,4.0,7.0,77,0.00,,---,0.00,VWS V14.01,2013-02-07 04:12:00,
2013-02-06 18:13:00,76.0,67.1,29.97,SW,230,0.0,3.0,74,0.00,,---,0.00,VWS V14.01,2013-02-07 04:13:00,
2013-02-06 18:14:00,75.8,68.1,30.00,West,281,4.0,7.0,77,0.00,,---,0.00,VWS V14.01,2013-02-07 04:14:00,
2013-02-06 18:15:00,75.8,68.1,30.00,West,281,5.0,7.0,77,0.00,,---,0.00,VWS V14.01,2013-02-07 04:15:00,
2013-02-06 18:16:00,75.8,68.1,30.00,West,281,4.0,7.0,77,0.00,,---,0.00,VWS V14.01,2013-02-07 04:16:00,
2013-02-06 18:17:00,75.8,68.1,30.00,West,281,4.0,7.0,77,0.00,,---,0.00,VWS V14.01,2013-02-07 04:17:00,
2013-02-06 18:18:00,75.9,67.0,29.97,WSW,252,2.0,3.0,74,0.00,,---,0.00,VWS V14.01,2013-02-07 04:18:00,
2013-02-06 18:19:00,75.7,68.0,30.00,West,280,2.0,7.0,77,0.00,,---,0.00,VWS V14.01,2013-02-07 04:19:00,
2013-02-06 18:20:00,75.8,68.1,30.00,West,279,5.0,7.0,77,0.00,,---,0.00,VWS V14.01,2013-02-07 04:20:00,
2013-02-06 18:21:00,75.7,68.0,30.00,West,268,6.0,7.0,77,0.00,,---,0.00,VWS V14.01,2013-02-07 04:21:00,
2013-02-06 18:22:00,75.6,67.9,30.00,West,270,5.0,7.0,77,0.00,,---,0.00,VWS V14.01,2013-02-07 04:22:00,
2013-02-06 18:23:00,76.0,67.5,29.97,WSW,252,1.0,3.0,75,0.00,,---,0.00,VWS V14.01,2013-02-07 04:23:00,
2013-02-06 18:24:00,75.6,67.9,30.00,West,270,2.0,7.0,77,0.00,,---,0.00,VWS V14.01,2013-02-07 04:24:00,
2013-02-06 18:25:00,75.6,67.9,30.00,West,270,4.0,7.0,77,0.00,,---,0.00,VWS V14.01,2013-02-07 04:25:00,
2013-02-06 18:26:00,75.7,68.0,30.00,WNW,282,6.0,7.0,77,0.00,,---,0.00,VWS V14.01,2013-02-07 04:26:00,
2013-02-06 18:27:00,75.7,68.0,30.00,WNW,282,5.0,7.0,77,0.00,,---,0.00,VWS V14.01,2013-02-07 04:27:00,
2013-02-06 18:28:00,76.0,67.5,29.98,WSW,252,0.0,3.0,75,0.00,,---,0.00,VWS V14.01,2013-02-07 04:28:00,
2013-02-06 18:29:00,75.6,67.9,30.00,WNW,282,4.0,7.0,77,0.00,,---,0.00,VWS V14.01,2013-02-07 04:29:00,
2013-02-06 18:30:00,75.6,67.9,30.00,WNW,282,6.0,7.0,77,0.00,,---,0.00,VWS V14.01,2013-02-07 04:30:00,
2013-02-06 18:31:00,75.7,68.0,30.00,WNW,282,2.0,6.0,77,0.00,,---,0.00,VWS V14.01,2013-02-07 04:31:00,
2013-02-06 18:32:00,75.7,68.0,30.00,WNW,282,1.0,6.0,77,0.00,,---,0.00,VWS V14.01,2013-02-07 04:32:00,
2013-02-06 18:33:00,75.9,67.8,29.98,WSW,252,1.0,3.0,76,0.00,,---,0.00,VWS V14.01,2013-02-07 04:33:00,
2013-02-06 18:34:00,75.7,68.0,30.01,WNW,282,0.0,6.0,77,0.00,,---,0.00,VWS V14.01,2013-02-07 04:34:00,
2013-02-06 18:35:00,75.6,67.9,30.01,WNW,282,3.0,6.0,77,0.00,,---,0.00,VWS V14.01,2013-02-07 04:35:00,
2013-02-06 18:36:00,75.6,67.9,30.01,WNW,282,1.0,6.0,77,0.00,,---,0.00,VWS V14.01,2013-02-07 04:36:00,
2013-02-06 18:37:00,75.6,67.9,30.01,WNW,282,1.0,6.0,77,0.00,,---,0.00,VWS V14.01,2013-02-07 04:37:00,
2013-02-06 18:38:00,76.0,67.9,29.98,WSW,252,0.0,4.0,76,0.00,,---,0.00,VWS V14.01,2013-02-07 04:38:00,
2013-02-06 18:40:00,75.5,67.8,30.01,WNW,282,2.0,6.0,77,0.00,,---,0.00,VWS V14.01,2013-02-07 04:40:00,
2013-02-06 18:43:00,76.0,67.9,29.98,WSW,252,2.0,4.0,76,0.00,,---,0.00,VWS V14.01,2013-02-07 04:43:00,
2013-02-06 18:44:00,75.5,67.4,30.01,WNW,282,0.0,6.0,76,0.00,,---,0.00,VWS V14.01,2013-02-07 04:44:00,
2013-02-06 18:45:00,75.4,67.3,30.01,WNW,282,2.0,6.0,76,0.00,,---,0.00,VWS V14.01,2013-02-07 04:45:00,
2013-02-06 18:48:00,76.1,68.4,29.99,WSW,252,3.0,4.0,77,0.00,,---,0.00,VWS V14.01,2013-02-07 04:48:00,
2013-02-06 18:50:00,75.3,67.2,30.01,WNW,282,0.0,6.0,76,0.00,,---,0.00,VWS V14.01,2013-02-07 04:50:00,
2013-02-06 18:51:00,75.1,67.0,30.01,WNW,282,0.0,6.0,76,0.00,,---,0.00,VWS V14.01,2013-02-07 04:51:00,
2013-02-06 18:53:00,75.9,68.2,29.98,WSW,252,3.0,4.0,77,0.00,,---,0.00,VWS V14.01,2013-02-07 04:53:00,
2013-02-06 18:56:00,74.7,66.6,30.02,WNW,282,0.0,6.0,76,0.00,,---,0.00,VWS V14.01,2013-02-07 04:56:00,
2013-02-06 18:57:00,74.6,66.5,30.01,WNW,282,0.0,6.0,76,0.00,,---,0.00,VWS V14.01,2013-02-07 04:57:00,
2013-02-06 18:58:00,75.9,68.2,29.99,West,259,4.0,5.0,77,0.00,,---,0.00,VWS V14.01,2013-02-07 04:58:00,
2013-02-06 18:59:00,74.4,66.7,30.02,WNW,282,0.0,6.0,77,0.00,,---,0.00,VWS V14.01,2013-02-07 04:59:00,
2013-02-06 19:00:00,74.4,66.7,30.02,WNW,282,0.0,6.0,77,0.00,,---,0.00,VWS V14.01,2013-02-07 05:00:00,
2013-02-06 19:02:00,74.6,67.3,30.02,WNW,282,0.0,1.0,78,0.00,,---,0.00,VWS V14.01,2013-02-07 05:02:00,
2013-02-06 19:07:00,74.2,66.5,30.02,WNW,282,0.0,1.0,77,0.00,,---,0.00,VWS V14.01,2013-02-07 05:07:00,
2013-02-06 19:08:00,73.9,66.2,30.02,WNW,282,0.0,1.0,77,0.00,,---,0.00,VWS V14.01,2013-02-07 05:08:00,
2013-02-06 19:09:00,73.9,66.2,30.02,WNW,282,0.0,1.0,77,0.00,,---,0.00,VWS V14.01,2013-02-07 05:09:00,
2013-02-06 19:11:00,73.8,66.2,30.02,WNW,282,0.0,1.0,77,0.00,,---,0.00,VWS V14.01,2013-02-07 05:11:00,
2013-02-06 19:14:00,73.7,66.4,30.02,WNW,282,0.0,1.0,78,0.00,,---,0.00,VWS V14.01,2013-02-07 05:14:00,
2013-02-06 19:15:00,73.7,66.4,30.02,WNW,282,0.0,1.0,78,0.00,,---,0.00,VWS V14.01,2013-02-07 05:15:00,
2013-02-06 19:16:00,73.6,66.3,30.02,WNW,282,0.0,1.0,78,0.00,,---,0.00,VWS V14.01,2013-02-07 05:16:00,
2013-02-06 19:20:00,73.3,66.0,30.02,WNW,282,1.0,2.0,78,0.00,,---,0.00,VWS V14.01,2013-02-07 05:20:00,
2013-02-06 19:21:00,73.2,65.9,30.02,WNW,282,2.0,2.0,78,0.00,,---,0.00,VWS V14.01,2013-02-07 05:21:00,
2013-02-06 19:22:00,73.1,65.5,30.02,WNW,282,1.0,2.0,77,0.00,,---,0.00,VWS V14.01,2013-02-07 05:22:00,
2013-02-06 19:23:00,73.0,65.7,30.02,WNW,282,0.0,2.0,78,0.00,,---,0.00,VWS V14.01,2013-02-07 05:23:00,
2013-02-06 19:25:00,72.8,65.6,30.02,WNW,282,0.0,2.0,78,0.00,,---,0.00,VWS V14.01,2013-02-07 05:25:00,
2013-02-06 19:27:00,72.7,65.8,30.02,WNW,282,1.0,2.0,79,0.00,,---,0.00,VWS V14.01,2013-02-07 05:27:00,
2013-02-06 19:29:00,72.8,65.9,30.02,WNW,282,0.0,2.0,79,0.00,,---,0.00,VWS V14.01,2013-02-07 05:29:00,
2013-02-06 19:30:00,72.8,65.9,30.02,WNW,282,0.0,2.0,79,0.00,,---,0.00,VWS V14.01,2013-02-07 05:30:00,
2013-02-06 19:32:00,72.8,65.9,30.02,WNW,282,1.0,1.0,79,0.00,,---,0.00,VWS V14.01,2013-02-07 05:32:00,
2013-02-06 19:33:00,72.9,66.0,30.02,WNW,282,1.0,1.0,79,0.00,,---,0.00,VWS V14.01,2013-02-07 05:33:00,
2013-02-06 19:34:00,72.9,66.0,30.02,WNW,282,0.0,1.0,79,0.00,,---,0.00,VWS V14.01,2013-02-07 05:34:00,
2013-02-06 19:43:00,72.9,66.0,30.02,WNW,282,0.0,1.0,79,0.00,,---,0.00,VWS V14.01,2013-02-07 05:43:00,
2013-02-06 19:44:00,75.5,67.8,30.01,WNW,282,3.0,6.0,77,0.00,,---,0.00,VWS V14.01,2013-02-07 05:44:00,
2013-02-06 19:46:00,72.8,65.9,30.02,WNW,282,0.0,1.0,79,0.00,,---,0.00,VWS V14.01,2013-02-07 05:46:00,
2013-02-06 19:48:00,72.8,65.9,30.02,WNW,282,0.0,1.0,79,0.00,,---,0.00,VWS V14.01,2013-02-07 05:48:00,
2013-02-06 19:51:00,75.4,67.3,30.02,WNW,282,1.0,6.0,76,0.00,,---,0.00,VWS V14.01,2013-02-07 05:51:00,
2013-02-06 19:56:00,75.0,66.9,30.01,WNW,282,0.0,6.0,76,0.00,,---,0.00,VWS V14.01,2013-02-07 05:56:00,
2013-02-06 20:04:00,74.4,66.7,30.02,WNW,282,0.0,0.0,77,0.00,,---,0.00,VWS V14.01,2013-02-07 06:04:00,
2013-02-06 20:12:00,74.0,66.3,30.02,WNW,282,0.0,1.0,77,0.00,,---,0.00,VWS V14.01,2013-02-07 06:12:00,
2013-02-06 20:17:00,73.7,66.4,30.02,WNW,282,0.0,1.0,78,0.00,,---,0.00,VWS V14.01,2013-02-07 06:17:00,
2013-02-06 20:22:00,73.5,66.2,30.02,WNW,282,2.0,2.0,78,0.00,,---,0.00,VWS V14.01,2013-02-07 06:22:00,
2013-02-06 20:28:00,72.9,65.7,30.02,WNW,282,1.0,2.0,78,0.00,,---,0.00,VWS V14.01,2013-02-07 06:28:00,
2013-02-06 20:35:00,72.8,65.9,30.02,WNW,282,0.0,0.0,79,0.00,,---,0.00,VWS V14.01,2013-02-07 06:35:00,
2013-02-06 20:40:00,73.0,66.1,30.02,WNW,282,0.0,1.0,79,0.00,,---,0.00,VWS V14.01,2013-02-07 06:40:00,
2013-02-06 20:45:00,72.9,66.0,30.02,WNW,282,0.0,1.0,79,0.00,,---,0.00,VWS V14.01,2013-02-07 06:45:00,
2013-02-06 20:51:00,72.8,65.9,30.02,WNW,282,0.0,1.0,79,0.00,,---,0.00,VWS V14.01,2013-02-07 06:51:00,
2013-02-06 20:56:00,72.7,65.4,30.02,WNW,282,0.0,1.0,78,0.00,,---,0.00,VWS V14.01,2013-02-07 06:56:00,
2013-02-06 21:01:00,72.6,65.7,30.02,WNW,282,0.0,1.0,79,0.00,,---,0.00,VWS V14.01,2013-02-07 07:01:00,
2013-02-06 21:06:00,72.1,64.9,30.02,WNW,282,0.0,1.0,78,0.00,,---,0.00,VWS V14.01,2013-02-07 07:06:00,
2013-02-06 21:11:00,72.1,65.2,30.02,WNW,282,1.0,1.0,79,0.00,,---,0.00,VWS V14.01,2013-02-07 07:11:00,
2013-02-06 21:16:00,71.2,64.4,30.02,WNW,282,1.0,1.0,79,0.00,,---,0.00,VWS V14.01,2013-02-07 07:16:00,
2013-02-06 21:21:00,71.1,64.3,30.01,WNW,282,0.0,2.0,79,0.00,,---,0.00,VWS V14.01,2013-02-07 07:21:00,
2013-02-06 21:26:00,71.2,64.4,30.01,WNW,282,0.0,2.0,79,0.00,,---,0.00,VWS V14.01,2013-02-07 07:26:00,
2013-02-06 21:31:00,71.2,64.4,30.01,WNW,282,0.0,2.0,79,0.00,,---,0.00,VWS V14.01,2013-02-07 07:31:00,
2013-02-06 21:37:00,71.4,64.9,30.01,WNW,282,0.0,0.0,80,0.00,,---,0.00,VWS V14.01,2013-02-07 07:37:00,
2013-02-06 21:42:00,71.4,64.9,30.02,WNW,282,1.0,1.0,80,0.00,,---,0.00,VWS V14.01,2013-02-07 07:42:00,
2013-02-06 21:47:00,71.0,64.5,30.02,WNW,282,1.0,2.0,80,0.00,,---,0.00,VWS V14.01,2013-02-07 07:47:00,
2013-02-06 21:52:00,71.1,65.0,30.02,WNW,282,0.0,2.0,81,0.00,,---,0.00,VWS V14.01,2013-02-07 07:52:00,
2013-02-06 21:57:00,70.6,64.1,30.02,WNW,282,1.0,2.0,80,0.00,,---,0.00,VWS V14.01,2013-02-07 07:57:00,
2013-02-06 22:02:00,69.9,63.8,30.02,WNW,282,1.0,2.0,81,0.00,,---,0.00,VWS V14.01,2013-02-07 08:02:00,
2013-02-06 22:07:00,69.9,64.2,30.02,WNW,290,0.0,3.0,82,0.00,,---,0.00,VWS V14.01,2013-02-07 08:07:00,
2013-02-06 22:12:00,70.4,64.7,30.02,WNW,290,0.0,3.0,82,0.00,,---,0.00,VWS V14.01,2013-02-07 08:12:00,
2013-02-06 22:17:00,70.5,64.4,30.02,NNW,337,1.0,3.0,81,0.00,,---,0.00,VWS V14.01,2013-02-07 08:17:00,
2013-02-06 22:22:00,70.8,65.0,30.02,NNW,337,0.0,3.0,82,0.00,,---,0.00,VWS V14.01,2013-02-07 08:22:00,
2013-02-06 22:27:00,70.8,65.0,30.02,NNW,337,0.0,3.0,82,0.00,,---,0.00,VWS V14.01,2013-02-07 08:27:00,
2013-02-06 22:32:00,70.9,64.8,30.02,NNW,337,0.0,3.0,81,0.00,,---,0.00,VWS V14.01,2013-02-07 08:32:00,
2013-02-06 22:37:00,70.4,64.3,30.02,NNW,337,1.0,1.0,81,0.00,,---,0.00,VWS V14.01,2013-02-07 08:37:00,
2013-02-06 22:42:00,69.9,63.8,30.02,NNW,337,0.0,1.0,81,0.00,,---,0.00,VWS V14.01,2013-02-07 08:42:00,
2013-02-06 22:47:00,69.6,63.9,30.02,NNW,337,0.0,1.0,82,0.00,,---,0.00,VWS V14.01,2013-02-07 08:47:00,
2013-02-06 22:52:00,70.0,64.6,30.02,NNW,337,0.0,1.0,83,0.00,,---,0.00,VWS V14.01,2013-02-07 08:52:00,
2013-02-06 22:57:00,69.7,64.0,30.02,NNW,337,0.0,1.0,82,0.00,,---,0.00,VWS V14.01,2013-02-07 08:57:00,
2013-02-06 23:02:00,69.5,63.8,30.02,NNW,337,1.0,2.0,82,0.00,,---,0.00,VWS V14.01,2013-02-07 09:02:00,
2013-02-06 23:07:00,69.8,64.4,30.02,NNW,337,0.0,1.0,83,0.00,,---,0.00,VWS V14.01,2013-02-07 09:07:00,
2013-02-06 23:12:00,69.7,64.3,30.02,NNW,337,0.0,2.0,83,0.00,,---,0.00,VWS V14.01,2013-02-07 09:12:00,
2013-02-06 23:17:00,70.4,65.3,30.01,NNW,337,0.0,2.0,84,0.00,,---,0.00,VWS V14.01,2013-02-07 09:17:00,
2013-02-06 23:22:00,71.0,65.6,30.01,NNW,337,0.0,2.0,83,0.00,,---,0.00,VWS V14.01,2013-02-07 09:22:00,
2013-02-06 23:27:00,70.5,64.4,30.02,NNW,337,1.0,2.0,81,0.00,,---,0.00,VWS V14.01,2013-02-07 09:27:00,
2013-02-06 23:32:00,69.4,63.7,30.02,East,83,2.0,3.0,82,0.00,,---,0.00,VWS V14.01,2013-02-07 09:32:00,
2013-02-06 23:37:00,69.9,64.5,30.01,SE,132,2.0,3.0,83,0.00,,---,0.00,VWS V14.01,2013-02-07 09:37:00,
2013-02-06 23:43:00,69.4,63.7,30.01,SE,132,1.0,3.0,82,0.00,,---,0.00,VWS V14.01,2013-02-07 09:43:00,
2013-02-06 23:48:00,69.0,63.6,30.01,SE,129,2.0,3.0,83,0.00,,---,0.00,VWS V14.01,2013-02-07 09:48:00,
2013-02-06 23:53:00,69.2,63.8,30.01,SE,129,1.0,3.0,83,0.00,,---,0.00,VWS V14.01,2013-02-07 09:53:00,
2013-02-06 23:58:00,69.9,64.5,30.01,SSE,156,2.0,4.0,83,0.00,,---,0.00,VWS V14.01,2013-02-07 09:58:00,